Wolf Creek Observed Data For Previous 48 Hours

Caption
Day and Hour Reservoir Elevation (behind dam)* Tailwater Elevation (below dam)* Average Hourly Discharge*
2/12/2016 1 AM CST 711.12 561.02 23,780
2/12/2016 2 AM CST 711.11 561.11 23,780
2/12/2016 3 AM CST 711.00 561.00 23,780
2/12/2016 4 AM CST 711.00 561.00 23,780
2/12/2016 5 AM CST 711.00 561.00 23,780
2/12/2016 6 AM CST 711.00 561.00 23,780
2/12/2016 7 AM CST 710.95 561.05 23,780
2/12/2016 8 AM CST 710.95 561.00 23,780
2/12/2016 9 AM CST 710.90 561.05 23,780
2/12/2016 10 AM CST 710.85 561.00 23,780
2/12/2016 11 AM CST 710.80 561.00 23,780
2/12/2016 12 PM CST 710.75 561.05 23,780
2/12/2016 1 PM CST 710.75 561.05 23,780
2/12/2016 2 PM CST 710.70 561.00 23,780
2/12/2016 3 PM CST 710.65 561.05 23,780
2/12/2016 4 PM CST 710.60 561.00 23,780
2/12/2016 5 PM CST 710.55 561.05 23,780
2/12/2016 6 PM CST 710.50 561.00 23,780
2/12/2016 7 PM CST 710.50 561.00 24,020
2/12/2016 8 PM CST 710.50 561.00 24,020
2/12/2016 9 PM CST 710.44 561.04 24,020
2/12/2016 10 PM CST 710.40 561.00 24,020
2/12/2016 11 PM CST 710.37 561.07 24,020
2/13/2016 12 AM CST 710.34 561.04 24,020
2/13/2016 1 AM CST 710.31 561.01 24,020
2/13/2016 2 AM CST 710.28 561.08 24,020
2/13/2016 3 AM CST 710.25 561.05 24,020
2/13/2016 4 AM CST 710.22 561.02 24,020
2/13/2016 5 AM CST 710.19 561.09 24,020
2/13/2016 6 AM CST 710.16 561.06 24,020
2/13/2016 7 AM CST 710.13 561.03 24,020
2/13/2016 8 AM CST 710.10 561.00 24,020
2/13/2016 9 AM CST 710.07 561.07 24,020
2/13/2016 10 AM CST 710.05 561.05 24,020
2/13/2016 11 AM CST 710.02 561.02 24,020
2/13/2016 12 PM CST 709.99 561.09 24,020
2/13/2016 1 PM CST 709.95 561.05 24,020
2/13/2016 2 PM CST 709.90 561.00 24,020
2/13/2016 3 PM CST 709.85 561.05 24,020
2/13/2016 4 PM CST 709.81 561.01 24,020
2/13/2016 5 PM CST 709.80 561.00 24,020
2/13/2016 6 PM CST 709.78 561.08 24,020
2/13/2016 7 PM CST 709.74 561.04 24,020
2/13/2016 8 PM CST 709.71 561.01 24,020
2/13/2016 9 PM CST 709.68 561.08 24,020

Elevations are in feet above sea level. Discharges are in cubic feet per second and are reported at the end of the hour.